{"data":{"norad_id":57873,"intl_designator":"2023-144K","name":"STARLINK-30445","alt_names":[],"object_type":"PAYLOAD","status":"ACTIVE","operator":null,"country":"US","launch_date":"2023-09-16","launch_site_code":"AFETR","launch_vehicle":null,"mission":null,"orbit_class":"UNKNOWN","rcs_meters":null,"size_class":null,"mass_kg":null,"dimensions":null,"purposes":["comms"],"wikipedia_slug":null,"has_3d_model":false,"image_url":null,"decayed_at":null,"tle_current":{"epoch":"2026-05-24T21:53:22.658784Z","epoch_age_seconds":76593,"freshness":"FRESH","line1":"1 57873U 23144K   26144.91206781  .00000382  00000+0  23422-4 0  9994","line2":"2 57873  43.0035 214.8302 0001383 281.2522  78.8174 15.27576995149256","mean_motion":15.27576995,"eccentricity":0.0001383,"inclination_deg":43.0035,"raan_deg":214.8302,"arg_perigee_deg":281.2522,"mean_anomaly_deg":78.8174,"bstar":2.3422e-5,"rev_number":14925,"period_min":94.266934152147,"perigee_km":482.10919082393,"apogee_km":484.00699738696,"semimajor_km":6861.1950941054,"source":"CELESTRAK","updated_at":"2026-05-25T13:38:18.448428Z"}}}